Regional Weather Roundup
Issued by NWS

Home | Current Version | Previous Version | Text Only | Print | Product List | Glossary Off
Versions: 1 2 3 4 5 6 7 8 9 10 11 12 13 14 15 16 17 18 19 20 21 22 23 24 25 26 27 28 29 30 31 32 33 34 35 36 37 38 39 40 41 42 43 44 45 46 47 48 49 50

000
ASUS44 KMEG 202010
RWRTN
TENNESSEE HOURLY STATE WEATHER ROUNDUP
NATIONAL WEATHER SERVICE MEMPHIS TN
200 PM CST MON FEB 20 2017

TNZ002-004-019-021-049-052-054-088>092-202100-
WEST TENNESSEE

CITY           SKY/WX    TMP DP  RH WIND       PRES   REMARKS
MEMPHIS INTL   PTSUNNY   78  56  46 S13       30.01F
NWS MEMPHIS      N/A     79 N/A N/A MISG        N/A
JACKSON        CLOUDY    76  53  44 VRB5      30.04F
UNION CITY     SUNNY     72  46  40 CALM      30.02F
PARIS          SUNNY     70  50  49 S8        30.06F
HUNTINGDON     SUNNY     73  52  46 S9        30.04F
$$

TNZ008-025-027-028-033-062-065-066-202100-
NORTH MIDDLE TENNESSEE

CITY           SKY/WX    TMP DP  RH WIND       PRES   REMARKS
NASHVILLE      CLOUDY    75  46  35 SE9       30.09F
PORTLAND       SUNNY     72  45  37 S6        30.08F
CLARKSVILLE    MOSUNNY   70  48  45 S8        30.07F
SMYRNA         MOSUNNY   76  49  38 S8        30.09F
COOKEVILLE     SUNNY     73  43  33 S6G13     30.10F
GALLATIN       SUNNY     73  46  38 SE5       30.11F
CROSSVILLE     MOSUNNY   68  39  34 VRB6      30.14F
$$

TNZ061-075-076-078-094-096-097-202100-
SOUTH MIDDLE TENNESSEE

CITY           SKY/WX    TMP DP  RH WIND       PRES   REMARKS
FAYETTEVILLE   SUNNY     73  45  35 VRB6      30.10F HAZE
TULLAHOMA      SUNNY     72  37  28 SE5       30.11F
MCMINNVILLE    SUNNY     73  45  35 NE5       30.10F
COLUMBIA       SUNNY     73  48  40 S6        30.06F
SHELBYVILLE    SUNNY     75  46  35 E7        30.10F
$$

TNZ017-018-042-046-047-202100-
NORTHEAST TENNESSEE

CITY           SKY/WX    TMP DP  RH WIND       PRES   REMARKS
TRI CITIES     CLOUDY    69  37  30 SW3       30.16S
ELIZABETHTON   DRIZZLE   70  43  37 W9        30.14S
$$

TNZ012-013-036-069-073-074-202100-
CENTRAL EAST TENNESSEE

CITY           SKY/WX    TMP DP  RH WIND       PRES   REMARKS
KNOXVILLE      CLOUDY    68  42  38 NW5       30.14F
OAK RIDGE      CLOUDY    68  44  42 CALM      30.15F
GATLINBURG     SUNNY     66  39  37 CALM      30.14F
MORRISTOWN     SUNNY     66  45  45 VRB5      30.15S
JACKSBORO      SUNNY     66  43  42 NE3       30.18F
$$

TNZ083-085-099-202100-
SOUTHEAST TENNESSEE

CITY           SKY/WX    TMP DP  RH WIND       PRES   REMARKS
CHATTANOOGA    CLOUDY    69  46  43 CALM      30.14F
$$

SKY/WX REPORTED AS FAIR MEANS FEW OR NO CLOUDS BELOW
12 THOUSAND FEET.





USA.gov is the U.S. government's official web portal to all federal, state and local government web resources and services.